Regional Weather Roundup
Issued by NWS Cleveland, OH

Home | Current Version | Previous Version | Graphics & Text | Print | Product List | Glossary On
Versions: 1 2 3 4 5 6 7 8 9 10 11 12 13 14 15 16 17 18 19 20 21 22 23 24 25 26 27 28 29 30 31 32 33 34 35 36 37 38 39 40 41 42 43 44 45 46 47 48 49 50
000
ASUS41 KCLE 010010
RWRCLE
OHIO REGIONAL WEATHER ROUNDUP
NATIONAL WEATHER SERVICE WILMINGTON, OH
700 PM EST SAT FEB 28 2015

NOTE: "FAIR" INDICATES FEW OR NO CLOUDS BELOW 12,000 FEET WITH NO
SIGNIFICANT WEATHER AND/OR OBSTRUCTIONS TO VISIBILITY.

OHZ001>008-015>018-024>027-034-035-043-044-010100-
   NORTHWEST OHIO

CITY           SKY/WX    TMP DP  RH WIND       PRES   REMARKS
DEFIANCE       MOCLDY    17   3  54 E6        30.61F WCI   9
FINDLAY        MOCLDY    19   1  45 E5        30.60S WCI  12
TOLEDO EXPRESS PTCLDY    16   0  49 CALM      30.62S
TOLEDO EXEC    CLEAR     16   3  56 E3        30.64S
LIMA           CLOUDY    18   6  59 E7        30.58S WCI   9
$$

OHZ009>014-019>023-028>033-038-089-010100-
   NORTHEAST OHIO

CITY           SKY/WX    TMP DP  RH WIND       PRES   REMARKS
CLE-HOPKINS    PTCLDY    14   3  61 NE7       30.66S WCI   4
CLE-LAKEFRONT  CLEAR     12   5  73 NE9       30.64F WCI   0
CUY CO. ARPT   PTCLDY    14   5  67 NE7       30.63F WCI   4
LORAIN-ELYRIA  CLEAR     14   5  67 E7        30.63S WCI   4
ASHTABULA      CLEAR     15   1  53 CALM      30.64S
AKRON-CANTON   PTCLDY    20  -1  40 E6        30.59F WCI  12
WOOSTER        CLEAR     12  -1  56 E3        30.59F
MANSFIELD      CLEAR     18   1  47 E7        30.57S WCI   9
YOUNGSTOWN     PTCLDY    20  -6  31 E5        30.61S WCI  13
$$

OHZ042-051>053-060>062-070>072-077>081-010100-
  SOUTHWEST OHIO

CITY           SKY/WX    TMP DP  RH WIND       PRES   REMARKS
CINC-COVINGTON CLOUDY    28  12  51 E9        30.53F WCI  19
CINC-LUNKEN    CLOUDY    27  12  53 NE7       30.57F WCI  19
HAMILTON       CLOUDY    27  11  51 E7        30.57F WCI  19
DAYTON         CLOUDY    23   8  52 SE9       30.55F WCI  13
WRIGHT-PAT AFB CLOUDY    22   5  48 E5        30.56F WCI  16
DAYTON GENERAL CLOUDY    22   8  55 E7        30.54F WCI  13
WILMINGTON     CLOUDY    22   9  57 E7        30.53F WCI  13
$$

OHZ036-037-039>041-045>050-054>059-063>069-073>076-082>088-010100-
  CENTRAL AND SOUTHEAST OHIO

CITY           SKY/WX    TMP DP  RH WIND       PRES   REMARKS
COLUMBUS       MOCLDY    24   2  38 E3        30.59S
OSU AIRPORT    PTCLDY    24   1  36 E5        30.58S WCI  18
BOLTON FIELD   PTCLDY   N/A N/A N/A E3        30.57F
RICKENBACK AFB PTCLDY    23   6  48 NE6       30.59R WCI  15
NEWARK         PTCLDY    23   5  46 E3        30.58S
MARION         PTCLDY    17   3  54 CALM      30.59S
LANCASTER      PTCLDY    20   8  60 CALM      30.59F
ZANESVILLE     CLEAR     25   2  37 E5        30.59S WCI  19
NEW PHILLY     CLEAR     25   0  33 CALM      30.61F
$$



USA.gov is the U.S. government's official web portal to all federal, state and local government web resources and services.